GFSFLT2_925_spd_057.txt.gz
Wind_Speed
6 19 21 22 24 25 25 24 17 19 26 24 26 26 23 27 17 24 26 24 26 25 34 36 37 39 40 38 39 38 38 35
5 9 17 21 18 21 18 24 27 20 22 19 27 24 26 20 15 15 18 24 23 23 32 37 39 40 38 38 39 39 38 37
17 12 19 16 20 18 18 23 21 19 17 15 21 25 24 24 21 18 20 18 19 22 32 36 35 37 40 39 36 38 39 38
21 13 18 24 22 26 18 22 21 21 16 14 13 21 22 20 21 25 22 19 21 21 29 32 36 37 39 40 41 41 40 38
17 15 16 16 21 16 20 26 24 20 20 22 3 9 9 19 23 20 23 22 19 20 20 27 34 35 37 40 41 40 39 40
14 8 11 14 24 23 20 16 21 24 21 26 9 4 11 14 18 22 19 19 21 19 19 26 30 33 34 37 39 38 39 40
16 18 13 16 15 13 18 14 19 21 25 23 15 13 7 6 8 13 11 13 20 17 17 18 24 29 33 34 36 39 38 38
18 16 15 18 19 18 21 20 20 24 26 21 19 12 13 7 9 3 5 6 8 12 14 16 23 25 31 34 34 38 37 40
19 17 18 20 21 20 22 23 22 22 23 20 19 10 15 12 8 2 8 8 6 8 9 15 25 25 28 34 34 34 35 34
14 18 19 16 13 16 23 24 24 25 26 25 24 10 19 1 6 8 8 10 10 10 11 14 18 24 28 30 36 34 35 32
13 14 18 19 1 9 8 13 17 22 24 27 25 24 14 17 1 7 9 10 12 14 16 17 18 21 20 29 31 34 32 37
11 16 20 16 11 8 5 13 11 17 23 23 16 14 10 12 9 11 12 13 15 18 20 21 24 24 24 27 30 35 37 40
16 14 12 12 8 8 5 3 21 19 15 12 11 10 12 12 13 14 14 15 20 22 22 23 25 27 28 29 31 38 34 32
15 9 16 8 6 5 5 12 18 20 13 13 13 13 12 11 14 15 16 21 22 23 18 20 23 25 26 26 32 29 31 32
5 5 3 4 9 10 7 12 22 17 10 10 11 10 11 11 12 12 17 22 23 21 12 11 9 16 21 27 25 27 28 30
8 2 10 12 10 6 8 18 21 12 8 7 10 9 10 10 11 12 17 20 24 21 21 20 23 21 4 14 19 22 25 27
5 6 13 4 4 8 15 19 10 6 4 7 8 9 8 9 9 10 14 18 22 20 20 23 26 28 28 12 17 22 24 27
3 8 8 9 11 11 15 9 8 7 3 4 5 7 7 8 10 10 14 18 21 23 23 25 26 28 32 27 9 16 21 24
4 10 10 7 6 11 14 7 7 8 11 1 3 6 7 6 10 13 14 17 16 18 21 22 24 27 30 31 27 2 17 24

GFSFLT2_925_spd_060.txt.gz
Wind_Speed
11 18 18 20 19 22 23 22 16 17 18 23 21 22 17 14 13 15 7 7 23 23 32 35 36 40 42 42 41 40 42 36
16 9 14 20 19 18 15 22 24 18 21 13 20 18 17 19 15 11 8 17 22 22 30 34 38 37 38 38 41 40 39 36
17 13 13 13 15 20 19 17 18 16 16 18 14 22 18 20 21 21 20 13 14 14 28 35 35 36 38 38 38 39 39 39
17 19 19 17 21 20 14 18 16 15 17 21 10 9 21 19 17 23 19 22 16 22 43 34 36 37 38 39 38 41 40 37
15 15 20 13 19 20 21 19 22 16 15 25 17 13 7 15 15 17 23 26 28 27 25 31 36 36 37 40 41 37 37 38
14 11 13 12 15 19 21 16 17 20 24 21 16 8 12 9 5 11 21 26 24 23 24 30 38 37 37 38 39 39 40 39
21 24 20 18 17 18 20 23 20 19 22 22 9 21 16 19 20 10 11 7 14 12 8 19 30 36 37 34 39 39 38 41
20 22 21 21 19 18 20 20 22 18 21 20 16 7 19 19 21 27 7 1 7 7 9 13 16 31 33 35 36 38 38 40
18 17 21 21 20 19 20 20 18 18 19 18 15 16 8 14 17 18 24 10 13 14 9 12 15 25 32 34 34 36 35 35
11 14 15 15 21 21 24 24 20 20 21 20 19 17 16 16 8 12 25 16 13 13 17 6 23 48 31 31 32 31 35 33
8 13 16 23 11 8 10 12 9 18 17 25 19 21 20 15 16 11 14 26 18 18 18 20 22 22 17 26 37 35 29 36
10 14 16 18 8 8 10 10 16 15 17 23 24 14 4 14 15 13 15 25 28 27 24 22 23 25 20 21 26 35 37 33
13 11 14 5 5 8 10 5 15 14 15 17 15 10 10 11 13 15 18 23 27 26 22 26 26 23 24 24 24 30 35 33
10 11 14 5 8 12 9 12 15 15 14 16 20 18 17 13 13 13 14 21 25 23 20 27 20 16 25 26 31 24 30 33
4 4 12 7 6 9 10 12 15 15 15 16 22 16 16 11 13 13 13 18 22 20 19 25 29 25 20 27 29 27 20 34
10 3 12 12 10 11 11 12 16 16 15 16 21 15 14 10 10 10 15 15 21 22 21 23 29 26 22 22 17 26 25 28
5 6 14 4 13 14 14 15 15 20 17 17 13 11 11 9 11 12 12 16 15 19 20 24 27 23 23 27 21 23 26 26
3 10 8 12 11 13 14 15 18 14 10 11 9 8 9 8 13 10 10 16 16 18 21 23 26 26 28 28 25 18 14 20
3 9 8 9 11 9 12 13 11 11 10 8 2 5 10 8 9 8 13 18 19 15 18 20 24 26 30 32 29 22 13 14

GFSFLT2_925_spd_063.txt.gz
Wind_Speed
13 7 11 8 5 9 7 9 4 6 8 13 11 19 24 22 14 10 8 7 5 25 34 36 32 39 41 40 40 40 43 45
15 15 6 9 4 3 3 7 7 6 8 6 6 13 25 22 16 13 8 12 8 13 20 33 38 38 38 39 40 39 39 41
11 4 8 7 4 4 1 2 6 6 7 9 9 6 15 23 22 25 21 24 16 14 15 14 22 32 39 37 39 38 41 37
13 19 18 13 9 4 4 8 3 4 8 13 10 14 22 18 25 27 27 22 20 21 15 12 22 31 39 39 42 43 41 39
10 7 5 7 13 13 3 2 8 4 7 3 14 16 14 21 9 19 26 24 20 13 12 29 18 19 37 41 41 41 40 40
5 11 10 14 21 18 9 2 5 5 7 15 13 13 17 14 17 10 6 16 21 20 22 38 43 29 38 39 40 41 41 40
10 14 15 20 20 20 14 8 3 9 14 6 8 8 9 9 13 15 18 7 12 19 13 6 26 14 30 39 41 40 41 41
10 12 15 18 19 21 17 13 12 11 15 10 13 11 11 18 13 14 15 19 21 13 17 13 21 31 15 36 41 43 39 40
5 9 12 11 12 16 17 12 9 10 10 16 17 17 16 17 15 13 9 8 7 19 15 8 10 21 17 25 29 40 42 39
4 4 4 8 10 15 16 13 16 11 16 13 13 11 18 20 16 16 15 12 13 13 18 12 3 19 22 26 10 14 28 38
4 4 10 13 11 4 7 5 15 14 14 15 18 9 9 19 15 15 16 13 16 20 24 25 29 16 15 14 24 24 25 34
2 4 5 3 5 8 6 4 11 13 14 15 15 6 6 19 16 17 23 24 25 24 21 19 24 26 18 19 20 29 30 38
5 6 5 7 3 8 3 4 11 11 9 10 5 4 13 14 12 18 20 26 24 21 19 20 20 28 15 31 26 29 26 29
1 6 6 19 7 4 6 9 10 10 9 9 7 9 15 13 10 12 16 22 22 22 23 25 27 24 16 11 20 18 23 21
4 3 4 9 10 11 12 11 12 13 14 12 12 9 10 12 9 9 15 18 19 21 21 22 27 28 26 29 31 30 20 22
6 1 7 12 8 9 11 14 15 14 15 13 15 12 10 9 6 7 13 15 15 14 14 20 24 27 28 28 31 29 25 21
5 5 14 6 13 12 12 13 16 15 14 14 12 13 10 6 6 4 16 17 15 9 9 14 23 25 28 29 30 28 25 21
3 6 6 7 10 13 11 12 12 16 12 12 11 15 9 6 7 9 9 10 14 14 14 17 20 24 26 30 28 27 24 21
4 2 7 8 10 13 14 14 11 14 11 12 15 19 8 6 9 9 5 10 14 13 16 15 17 22 28 31 30 27 23 22

GFSFLT2_925_spd_069.txt.gz
Wind_Speed
4 6 2 2 4 1 7 4 3 3 5 5 11 13 4 12 11 16 18 17 19 20 31 34 36 38 39 38 38 42 45 40
5 5 7 7 2 3 4 4 3 3 2 3 10 12 11 3 9 11 12 9 11 16 28 34 37 40 41 43 43 48 47 44
2 6 4 7 5 5 3 4 5 3 1 5 7 8 8 10 7 9 15 13 10 13 28 32 35 37 38 37 38 36 40 43
4 6 6 10 5 4 4 5 2 2 2 8 10 8 11 14 14 12 15 10 6 4 15 14 21 26 32 35 34 35 40 39
4 6 8 7 6 4 4 3 3 1 2 10 13 14 17 19 20 15 12 10 10 9 8 5 1 18 24 27 29 34 37 37
4 3 3 3 5 5 5 4 4 3 4 11 16 17 17 18 18 16 15 13 11 9 6 9 1 8 12 26 28 30 28 31
2 2 2 2 4 5 3 4 4 6 5 7 12 12 13 14 16 19 17 17 13 9 6 11 12 6 10 19 31 33 31 31
6 4 5 2 4 5 6 3 2 5 2 5 6 9 13 14 14 15 16 16 13 11 13 14 16 15 11 8 19 31 32 34
3 6 6 5 6 5 2 3 3 5 1 4 5 10 11 12 11 12 11 12 13 12 14 14 14 16 16 13 11 16 33 34
2 4 1 5 3 5 8 5 4 3 5 4 5 6 3 9 11 12 11 10 11 15 14 15 17 20 20 15 7 9 15 33
4 3 5 4 4 4 2 4 3 2 3 4 9 4 6 9 12 12 12 13 14 18 21 17 17 23 20 17 9 6 5 3
3 3 5 5 3 7 3 3 3 3 4 6 8 1 4 14 14 15 23 22 18 21 20 18 18 20 18 16 15 17 13 8
3 4 6 2 6 4 3 2 2 2 2 3 1 4 9 12 16 20 21 26 23 21 19 18 18 19 12 15 16 18 17 14
2 2 7 2 2 3 0 2 2 4 5 6 6 7 16 13 13 20 21 22 21 19 20 21 18 13 15 16 20 17 17 17
6 4 2 2 4 3 1 3 3 4 6 8 11 13 13 15 14 19 22 22 22 20 18 18 16 19 13 16 19 19 17 16
4 4 2 4 5 2 2 4 7 9 10 11 15 15 11 15 13 14 24 22 19 18 19 19 16 14 15 19 22 24 14 8
5 7 5 2 3 2 4 6 10 14 13 14 15 14 13 12 13 16 23 28 22 16 15 16 16 17 17 16 20 23 26 20
5 6 4 6 4 3 5 8 9 13 13 16 16 13 16 13 19 20 22 25 23 22 15 10 13 18 17 19 21 23 20 17
5 5 7 6 5 7 7 9 11 14 14 12 15 17 19 19 23 24 24 22 19 14 14 12 11 14 17 18 21 25 19 13

GFSFLT2_925_spd_072.txt.gz
Wind_Speed
4 5 2 4 5 3 7 2 3 2 4 6 18 19 20 18 2 5 9 13 13 15 24 26 29 32 36 37 39 40 44 41
5 5 7 7 1 3 4 3 2 2 3 4 16 19 19 19 16 11 7 7 10 11 23 26 30 34 37 37 39 45 46 44
5 8 5 6 5 5 5 3 5 4 2 7 7 11 17 18 17 16 9 9 9 7 18 26 26 27 31 31 33 33 35 36
2 5 4 5 3 3 4 3 2 3 2 6 10 13 16 17 18 20 17 6 5 6 9 18 22 24 26 26 27 33 37 41
3 5 5 7 5 3 4 3 1 4 4 8 11 14 16 17 17 18 20 17 14 12 7 9 11 18 24 29 27 28 28 30
6 4 3 4 4 4 4 3 3 1 3 6 12 15 16 17 15 15 16 16 14 13 16 16 7 0 14 23 28 27 27 31
5 5 3 3 3 1 1 3 3 5 2 3 6 9 9 11 15 17 17 17 15 13 15 17 17 15 8 17 29 32 33 32
2 3 2 4 6 6 4 3 3 6 3 3 3 5 9 11 13 15 15 16 15 14 19 19 17 17 18 13 11 27 34 36
3 2 2 3 1 3 2 2 2 1 0 4 4 6 6 7 9 11 13 14 14 14 18 20 22 22 20 19 12 11 24 31
2 1 4 3 2 5 4 1 1 4 2 3 3 5 0 4 7 10 12 13 14 18 20 22 23 26 24 21 4 2 7 18
4 1 3 1 2 2 4 6 2 2 3 5 11 5 5 3 8 7 9 16 17 21 21 22 22 24 23 21 17 10 7 8
2 3 4 5 3 3 1 4 4 4 4 4 9 3 2 8 14 13 19 20 21 26 22 23 22 21 19 16 12 10 10 10
3 2 5 2 4 2 4 2 1 2 1 0 1 4 13 14 16 18 16 22 27 24 21 22 25 22 19 15 14 12 11 12
3 3 6 1 1 3 1 1 3 2 2 5 6 9 11 17 16 17 23 23 20 25 25 25 23 21 20 17 18 18 13 10
6 4 2 1 2 1 2 3 3 3 4 7 10 10 12 14 16 23 23 25 23 18 26 31 23 21 17 20 20 20 18 14
3 2 5 5 2 3 4 3 3 4 6 7 11 12 15 14 17 23 25 22 27 26 20 26 30 24 21 17 18 21 21 18
4 6 3 5 6 5 4 3 5 6 10 12 11 12 13 14 19 23 25 25 24 28 28 24 26 29 25 20 17 18 16 18
5 7 5 4 6 6 4 4 5 6 11 14 13 11 16 16 22 23 23 27 26 27 30 30 25 27 24 23 20 17 14 14
5 5 7 4 4 6 4 6 6 6 9 10 15 16 17 17 21 27 25 23 22 27 30 29 23 23 21 20 23 24 16 14

GFSFLT2_925_spd_075.txt.gz
Wind_Speed
7 6 2 6 8 2 5 1 8 4 3 6 16 19 21 20 18 13 6 17 20 23 27 28 28 28 29 29 29 29 31 29
5 2 10 2 4 6 3 9 9 4 3 4 17 19 18 20 18 16 8 10 16 21 25 27 28 29 28 29 30 36 33 30
1 7 7 1 3 3 2 2 6 7 4 6 8 11 14 17 17 17 16 1 8 14 19 22 23 24 26 26 26 27 28 30
4 1 4 7 3 1 7 5 2 1 5 5 8 10 12 14 16 17 18 17 13 7 6 16 18 19 23 24 24 26 28 27
3 3 1 4 5 3 2 0 2 5 5 5 8 12 12 14 16 16 18 19 17 20 18 13 4 15 17 19 22 21 22 23
2 4 2 3 4 5 3 3 7 3 11 6 9 11 13 14 15 16 16 18 15 16 20 21 17 13 3 11 17 19 22 22
9 6 3 1 1 3 4 4 2 9 8 5 5 7 9 11 13 15 17 18 17 16 19 21 22 20 13 8 6 16 21 23
3 4 3 4 5 4 1 4 3 3 6 3 3 4 8 11 12 14 15 16 17 19 21 23 22 21 20 16 12 11 18 24
4 2 0 5 6 6 2 3 4 5 5 5 4 4 7 9 11 13 14 15 15 17 20 22 23 22 23 24 17 11 13 20
5 3 4 5 4 1 2 4 4 5 6 5 3 2 3 5 10 12 13 14 16 19 21 22 23 23 26 25 22 14 6 6
4 6 1 6 2 1 3 4 3 5 2 3 5 2 6 3 11 13 14 16 16 18 20 20 21 23 23 23 21 20 16 12
2 3 6 5 7 3 3 5 4 4 4 6 10 4 4 6 15 17 19 18 20 21 19 19 20 21 21 20 19 18 20 21
4 3 2 3 5 3 5 4 4 3 3 3 4 5 14 17 15 15 17 20 23 23 19 19 20 20 20 20 18 18 19 20
2 4 6 6 5 5 5 3 1 1 3 5 7 10 14 16 17 19 18 19 20 21 25 23 20 19 19 19 20 20 21 20
7 3 2 5 2 4 3 3 4 2 3 6 9 11 12 14 18 21 22 20 20 20 24 26 23 20 20 19 19 19 20 23
2 6 10 8 3 4 6 5 5 3 2 7 10 10 12 12 17 21 23 24 23 22 23 27 24 24 22 21 18 16 18 19
5 5 2 7 7 3 5 6 4 3 3 7 8 9 11 10 15 19 24 25 23 22 23 25 27 26 24 22 17 15 17 19
5 8 4 3 9 11 8 8 7 6 4 3 5 7 10 10 12 14 20 22 21 21 21 20 25 26 23 21 15 13 15 17
3 9 4 9 11 14 11 9 10 9 7 5 7 7 9 10 12 15 14 15 16 17 20 20 19 19 15 10 15 14 16 16

GFSFLT2_925_spd_078.txt.gz
Wind_Speed
4 2 7 20 16 7 7 8 9 13 14 15 10 12 14 14 13 13 5 18 18 21 24 25 26 26 26 24 24 24 26 23
3 4 2 7 13 10 9 14 13 10 17 10 8 12 14 17 17 15 2 6 14 18 21 23 25 26 25 24 24 24 24 24
7 2 2 7 11 10 9 5 14 9 7 8 6 7 11 12 13 15 18 12 10 7 17 19 20 22 24 24 23 21 22 23
9 6 1 2 5 9 10 12 6 6 7 9 10 7 9 12 13 14 16 15 15 24 16 12 17 17 20 20 20 20 19 20
10 7 4 3 2 2 8 8 13 10 8 10 10 10 11 12 12 13 16 18 16 20 21 22 25 1 11 13 15 16 16 18
4 7 6 8 3 1 7 10 8 4 18 13 10 11 11 12 13 13 14 14 14 16 19 22 23 21 21 10 6 12 14 16
9 8 6 4 4 3 1 5 5 17 16 12 11 11 11 11 12 13 14 15 15 14 17 19 21 19 17 16 15 9 10 15
3 3 3 4 4 3 3 3 6 10 14 11 9 9 10 11 12 13 14 14 14 16 18 19 20 19 20 20 17 13 11 14
4 1 2 8 11 9 6 5 6 9 13 9 10 8 8 10 12 13 13 13 14 14 17 18 18 19 20 22 20 17 16 9
4 6 6 7 4 1 7 7 3 9 10 7 7 6 8 9 9 11 11 12 13 16 17 17 17 18 17 17 18 19 22 18
4 9 4 5 5 6 12 10 3 9 8 7 4 6 9 6 8 9 11 12 13 15 15 15 17 18 19 17 17 15 17 18
4 5 6 10 7 2 2 8 7 6 5 3 3 8 11 5 8 9 11 12 14 15 15 15 17 19 19 17 17 17 19 19
7 5 2 5 6 5 7 6 8 6 4 1 3 7 6 7 8 9 10 12 14 14 14 14 16 18 18 18 17 17 18 19
5 6 8 8 6 6 7 7 7 4 3 2 4 6 8 10 10 11 11 12 12 14 15 15 15 17 17 17 18 19 18 19
4 2 4 10 3 6 3 3 3 1 2 1 4 6 7 8 10 11 13 14 14 14 16 17 16 16 19 20 20 21 20 19
2 8 7 8 6 5 3 3 4 4 3 1 4 5 6 6 8 10 11 15 16 15 15 16 17 18 19 22 22 21 21 21
8 7 3 9 9 9 6 6 6 5 2 2 4 5 7 8 8 10 11 13 14 13 12 13 16 18 19 21 21 22 23 20
4 2 8 2 13 11 11 10 7 5 4 2 2 4 5 6 9 11 12 14 14 14 14 15 17 18 19 19 17 18 18 21
5 5 5 3 9 14 11 8 7 5 5 3 2 1 2 3 4 7 10 11 11 12 14 16 17 18 19 20 18 16 18 22

GFSFLT2_925_spd_084.txt.gz
Wind_Speed
20 22 23 17 20 19 15 17 15 9 14 17 19 11 9 5 9 11 11 27 21 15 29 25 30 33 32 32 27 25 24 22
17 19 14 12 19 16 15 16 14 12 16 13 17 13 9 6 10 12 15 13 13 15 21 30 24 33 32 34 30 28 25 24
14 13 12 13 12 17 19 15 13 8 7 14 14 10 7 9 13 13 10 11 9 15 28 21 5 13 27 33 30 26 26 25
17 15 17 17 17 16 13 19 12 6 6 11 13 10 9 9 13 14 11 11 11 13 27 18 26 22 12 6 29 27 27 27
15 14 16 11 17 16 19 19 14 7 8 12 14 11 10 10 14 15 13 12 13 18 20 16 18 30 22 16 16 3 23 27
11 7 16 17 17 12 12 11 10 12 19 17 16 13 13 12 14 15 15 14 14 14 16 12 11 25 18 17 21 26 12 16
19 15 20 20 19 7 12 14 15 14 18 17 16 15 13 15 14 17 17 17 16 16 18 18 20 25 23 21 21 22 22 22
5 9 15 23 21 13 14 14 13 8 18 20 17 16 14 13 14 15 16 17 15 16 19 19 20 19 19 17 24 22 24 22
3 1 5 3 5 2 8 4 21 17 10 19 18 15 13 12 13 14 14 14 15 14 18 18 17 14 14 18 19 20 23 18
8 2 7 5 9 4 10 5 12 20 21 18 17 16 14 12 11 12 12 13 12 15 15 16 16 14 11 9 9 16 19 18
6 9 3 5 1 5 6 10 14 19 14 18 19 17 11 11 10 10 10 12 12 11 13 13 13 13 12 12 14 15 15 13
9 8 14 14 13 10 4 8 11 14 15 16 17 9 10 11 10 9 10 10 8 8 10 11 10 11 10 11 13 14 15 15
10 7 3 5 4 4 7 3 14 13 12 11 8 10 14 11 9 8 6 8 4 6 7 8 9 10 10 10 11 12 13 14
7 7 5 8 2 2 6 8 9 9 10 16 13 11 9 7 7 4 5 5 5 5 6 6 9 10 9 11 13 14 14 14
6 6 8 11 12 9 10 9 9 9 7 8 7 6 6 5 4 6 7 6 7 6 7 11 11 10 10 12 13 14 15 18
3 9 8 7 7 6 6 9 6 7 8 5 6 6 7 6 6 7 8 7 5 5 6 7 10 10 11 13 16 17 18 17
6 3 6 5 4 6 4 3 7 6 6 5 5 6 7 6 7 7 5 5 3 3 3 5 8 10 11 13 15 16 18 20
4 5 7 3 11 10 9 6 6 9 6 5 4 7 5 8 6 5 5 4 4 2 4 5 6 7 10 12 13 15 16 17
6 8 5 5 1 4 9 9 9 9 11 10 8 9 8 10 6 4 4 4 4 4 5 5 7 7 9 11 13 14 15 16

GFSFLT2_925_spd_087.txt.gz
Wind_Speed
16 7 5 8 8 9 6 7 3 6 4 9 7 9 14 12 13 12 12 15 13 24 12 13 29 32 34 35 33 31 29 28
16 8 10 10 3 8 2 2 4 5 6 10 12 11 12 11 9 6 3 18 18 24 2 4 9 32 36 38 36 33 31 27
12 10 13 3 1 3 2 3 4 5 2 4 12 12 11 8 7 5 5 5 7 13 16 12 10 7 23 27 34 35 33 28
6 5 6 4 7 4 4 8 1 4 2 10 11 12 11 7 7 7 7 9 7 11 12 14 11 19 16 10 2 12 34 31
6 4 9 4 5 4 4 2 5 5 6 10 14 15 9 7 7 8 10 9 10 13 12 18 18 15 15 15 16 8 11 26
2 4 3 4 9 8 3 1 3 6 12 15 15 15 13 9 7 10 9 10 10 12 14 14 18 16 18 15 12 15 8 11
11 10 13 16 8 11 5 6 5 10 13 15 17 16 15 12 11 11 10 10 9 10 12 15 18 15 16 19 23 19 10 6
7 11 13 13 13 15 3 12 11 13 14 17 17 18 16 15 13 12 12 11 11 12 16 16 14 13 14 18 21 18 17 12
5 8 10 5 4 5 9 14 19 11 10 21 18 18 15 13 11 10 11 8 9 11 16 19 17 18 18 19 18 24 21 15
5 8 4 3 9 9 7 17 21 22 18 10 15 15 15 12 10 9 8 8 8 16 18 18 18 14 14 19 23 27 18 15
2 3 4 15 14 10 5 9 19 20 20 22 17 18 12 11 10 9 8 13 15 19 18 21 19 21 24 24 23 22 19 18
1 2 3 2 9 14 5 6 16 17 23 21 16 9 5 9 10 13 18 12 14 19 18 18 18 17 21 21 21 20 19 18
1 2 3 4 8 10 6 3 8 18 17 14 6 7 10 10 12 18 18 9 12 18 18 18 16 17 20 21 21 17 15 15
3 2 2 9 8 5 2 7 15 18 19 16 14 14 12 10 9 15 15 15 15 19 23 20 17 16 19 20 16 15 14 14
3 3 2 8 8 7 8 7 10 10 9 12 11 9 10 8 9 18 20 18 15 18 20 19 18 17 17 16 16 15 14 15
4 2 7 7 7 7 7 7 8 9 8 8 9 9 8 8 11 17 18 14 12 13 14 15 14 13 14 16 15 15 15 16
2 4 6 6 6 6 7 6 7 7 8 8 8 8 9 9 15 17 14 12 9 8 12 12 9 10 11 13 15 15 15 16
2 4 3 1 8 9 6 2 5 6 7 10 10 9 17 14 14 15 12 9 9 9 10 8 10 10 10 10 12 13 15 16
3 7 6 6 5 6 8 8 5 8 10 7 9 14 18 17 13 11 11 10 9 9 8 6 6 6 6 6 10 12 13 16